Date,TemperatureHighF,TemperatureAvgF,TemperatureLowF,DewpointHighF,DewpointAvgF,DewpointLowF,HumidityHigh,HumidityAvg,HumidityLow,PressureMaxIn,PressureMinIn,WindSpeedMaxMPH,WindSpeedAvgMPH,GustSpeedMaxMPH,PrecipitationSumIn
2013-1-1,48,44,39,42,37,32,93,77,61,30.29,30.23,8,2,13,0.01
2013-1-2,54,46,39,37,34,31,81,64,47,30.26,30.16,6,1,9,0.00
2013-1-3,54,46,42,40,36,32,83,69,55,30.29,30.17,4,1,6,0.00
2013-1-4,55,48,41,40,37,33,81,66,49,30.31,30.20,6,1,11,0.00
2013-1-5,51,48,44,46,43,36,94,85,69,30.27,30.08,11,2,14,0.11
2013-1-6,47,45,42,45,43,40,97,93,85,30.21,30.06,9,3,14,0.16
2013-1-7,56,49,43,49,45,40,94,86,76,30.27,30.18,6,2,10,0.01
2013-1-8,59,52,47,50,46,41,94,80,62,30.25,30.15,5,1,10,0.00
2013-1-9,52,46,42,48,43,37,97,90,81,30.16,30.03,15,3,21,0.12
2013-1-10,47,42,39,38,36,33,92,79,65,30.22,30.10,18,6,21,0.03
2013-1-11,49,43,39,41,37,32,93,77,63,30.29,30.16,16,4,19,0.00
2013-1-12,46,41,36,39,31,21,94,68,36,30.28,30.17,5,1,7,0.00
2013-1-13,46,40,34,32,26,17,76,58,33,30.29,30.20,6,1,12,0.00
2013-1-14,48,41,34,29,18,12,59,40,29,30.43,30.25,9,2,13,0.00
2013-1-15,52,45,40,34,28,24,69,53,36,30.49,30.41,5,1,9,0.00
2013-1-16,55,46,39,35,31,30,71,58,39,30.45,30.27,5,1,7,0.00
2013-1-17,61,51,42,38,34,31,67,53,39,30.28,30.17,6,1,10,0.00
2013-1-18,62,54,46,39,35,29,64,50,38,30.24,30.15,12,2,14,0.00
2013-1-19,62,55,50,40,34,28,58,45,38,30.26,30.16,8,1,10,0.00
2013-1-20,64,55,48,38,34,30,63,46,31,30.24,30.14,9,1,12,0.00
2013-1-21,61,54,45,39,36,29,62,49,38,30.19,30.09,9,1,12,0.00
2013-1-22,59,53,46,42,38,35,71,58,45,30.11,30.02,5,1,7,0.00
2013-1-23,61,53,49,51,43,30,95,72,37,30.09,29.97,10,1,14,0.14
2013-1-24,54,51,48,51,50,47,100,94,87,30.20,30.07,6,1,9,0.01
2013-1-25,61,55,51,56,52,50,98,91,80,30.20,30.06,7,2,9,0.03
2013-1-26,54,50,44,51,44,38,96,83,59,30.10,30.02,18,5,23,0.00
2013-1-27,52,46,43,41,38,33,89,77,49,30.19,30.09,17,5,19,0.01
2013-1-28,53,47,43,44,41,38,89,80,62,30.31,30.18,15,5,19,0.00
2013-1-29,57,48,43,45,42,40,91,78,63,30.38,30.29,12,3,15,0.00
2013-1-30,64,56,51,44,42,39,71,58,42,30.35,30.27,6,1,9,0.00
2013-1-31,62,54,47,46,43,40,87,68,50,30.30,30.19,7,1,10,0.00
2013-2-1,63,55,47,48,45,43,85,71,50,30.23,30.13,7,1,10,0.00
2013-2-2,55,49,44,50,46,43,96,90,78,30.31,30.22,9,1,9,0.00
2013-2-3,56,48,44,46,43,41,95,82,68,30.27,30.16,7,3,13,0.00
2013-2-4,54,46,41,50,44,40,98,93,83,30.20,30.09,6,1,7,0.01
2013-2-5,52,49,46,46,44,40,91,84,76,30.17,30.11,15,6,18,0.01
2013-2-6,56,48,42,44,41,38,92,79,61,30.21,30.14,12,3,19,0.00
2013-2-7,52,46,40,46,41,38,94,82,61,30.19,30.01,13,3,19,0.14
2013-2-8,50,43,38,41,38,30,100,82,51,30.04,29.96,14,4,16,0.11
2013-2-9,56,48,44,34,29,24,63,47,33,30.11,30.01,11,3,14,0.00
2013-2-10,57,49,41,41,33,25,76,55,41,30.14,30.04,9,2,11,0.00
2013-2-11,60,51,44,38,31,25,72,46,29,30.24,30.08,11,3,16,0.00
2013-2-12,59,49,39,44,40,34,95,73,42,30.37,30.24,7,2,9,0.00
2013-2-13,61,52,43,46,41,37,92,68,44,30.35,30.23,9,1,12,0.00
2013-2-14,65,58,45,44,41,38,94,56,41,30.26,30.17,7,2,16,0.00
2013-2-15,69,61,54,46,41,36,56,48,38,30.27,30.21,6,1,10,0.00
2013-2-16,66,58,49,50,45,37,79,63,45,30.23,30.07,8,2,11,0.00
2013-2-17,60,51,43,47,43,38,100,76,52,30.07,29.99,7,1,11,0.00
2013-2-18,50,45,42,44,40,36,92,83,66,30.07,29.99,12,3,18,0.00
2013-2-19,45,42,37,42,38,34,94,87,74,30.00,29.78,21,5,24,0.42
2013-2-20,55,45,37,41,37,32,88,75,44,30.09,29.86,12,4,19,0.00
2013-2-21,56,48,42,40,36,28,90,65,40,30.19,30.06,16,4,21,0.00
2013-2-22,60,51,43,43,38,28,81,62,39,30.27,30.18,14,2,21,0.00
2013-2-23,53,48,44,46,39,32,95,72,48,30.28,30.18,17,6,20,0.02
2013-2-24,59,50,44,36,28,22,66,43,26,30.28,30.18,15,4,20,0.00
2013-2-25,58,50,42,45,41,31,87,71,52,30.29,30.20,14,3,14,0.00
2013-2-26,64,53,42,41,32,22,88,49,21,30.23,30.15,10,2,13,0.00
2013-2-27,66,55,45,45,38,25,82,53,30,30.38,30.22,14,2,14,0.00
2013-2-28,64,54,46,52,48,43,92,80,59,30.46,30.37,13,2,18,0.00
2013-3-1,69,59,49,53,49,46,95,72,51,30.44,30.25,7,1,9,0.00
2013-3-2,66,58,52,54,49,44,84,72,51,30.25,30.08,6,1,10,0.00
2013-3-3,60,52,44,49,46,42,94,81,57,30.12,30.05,15,3,19,0.00
2013-3-4,54,46,42,46,42,38,95,87,72,30.17,30.08,11,2,17,0.00
2013-3-5,55,47,39,45,41,35,93,80,60,30.09,29.85,26,4,33,0.32
2013-3-6,52,48,44,47,41,36,93,78,62,30.09,29.86,29,7,40,0.48
2013-3-7,54,47,42,44,40,36,96,79,60,30.01,29.87,9,2,11,0.24
2013-3-8,54,47,43,44,42,40,96,83,64,30.08,29.85,26,7,30,0.03
2013-3-9,63,52,43,42,40,34,91,65,38,30.32,30.08,15,4,25,0.00
2013-3-10,67,57,50,46,37,29,71,50,26,30.35,30.26,11,2,11,0.00
2013-3-11,70,59,47,49,42,34,81,55,34,30.27,30.12,7,2,12,0.00
2013-3-12,71,56,46,54,48,42,100,77,46,30.17,30.08,6,1,9,0.00
2013-3-13,75,62,48,55,50,45,95,68,37,30.16,30.07,7,1,11,0.00
2013-3-14,70,59,51,54,47,33,91,66,30,30.17,30.08,12,2,18,0.00
2013-3-15,69,57,46,51,45,34,86,65,44,30.14,30.06,11,2,19,0.00
2013-3-16,70,55,44,54,45,34,97,73,27,30.12,30.05,16,4,23,0.01
2013-3-17,65,53,45,46,41,36,84,65,39,30.16,30.07,17,4,18,0.00
2013-3-18,62,53,45,50,45,35,92,75,41,30.14,30.05,15,2,23,0.00
2013-3-19,65,54,46,50,43,30,92,68,38,30.15,30.06,11,2,18,0.06
2013-3-20,61,54,49,54,49,41,96,85,65,30.15,30.08,13,4,19,0.02
2013-3-21,60,50,42,48,42,39,93,75,48,30.16,30.04,11,4,15,0.00
2013-3-22,64,54,47,41,33,21,77,50,21,30.14,30.04,11,3,15,0.00
2013-3-23,65,55,49,45,33,22,81,46,22,30.15,30.05,11,2,12,0.00
2013-3-24,67,54,44,49,44,39,91,70,42,30.10,29.99,12,2,14,0.00
2013-3-25,61,50,44,48,43,39,93,79,61,30.04,29.96,12,2,15,0.00
2013-3-26,64,52,44,50,44,41,92,75,54,30.03,29.94,9,2,12,0.00
2013-3-27,62,54,48,53,49,45,92,85,68,30.02,29.96,16,3,21,0.00
2013-3-28,65,56,52,57,53,50,96,88,74,30.09,30.01,9,1,11,0.05
2013-3-29,72,59,50,56,52,49,97,79,48,30.10,30.01,9,2,19,0.01
2013-3-30,66,59,54,55,51,47,92,76,53,30.03,29.97,12,3,17,0.10
2013-3-31,63,56,52,54,51,50,95,83,63,30.07,30.00,17,3,22,0.14
2013-4-1,62,55,49,53,50,46,97,86,69,30.17,30.05,11,3,18,0.28
2013-4-2,65,54,48,55,49,45,94,84,60,30.20,30.10,8,2,11,0.01
2013-4-3,73,55,46,56,50,45,100,83,49,30.16,30.00,11,2,11,0.00
2013-4-4,62,55,50,56,52,48,97,90,76,30.13,30.00,20,3,24,0.45
2013-4-5,60,55,51,52,50,48,95,85,70,30.21,30.13,14,3,20,0.02
2013-4-6,61,55,49,54,50,46,93,85,65,30.22,30.15,11,2,15,0.00
2013-4-7,61,53,49,54,49,45,94,86,68,30.20,29.87,24,5,34,0.09
2013-4-8,59,51,45,48,40,34,92,68,44,30.03,29.84,30,11,41,0.01
2013-4-9,69,60,52,42,37,32,58,43,30,30.11,30.03,22,7,29,0.00
2013-4-10,81,68,58,51,44,37,70,44,30,30.19,30.05,19,5,26,0.00
2013-4-11,68,57,48,50,44,39,86,64,35,30.08,29.87,22,5,27,0.00
2013-4-12,72,56,44,54,45,41,94,71,38,29.94,29.85,11,2,13,0.00
2013-4-13,66,54,47,51,43,38,89,68,47,29.93,29.86,16,3,23,0.00
2013-4-14,64,52,43,47,40,35,92,67,35,29.96,29.89,19,6,30,0.00
2013-4-15,54,47,43,47,39,35,94,75,55,29.99,29.87,27,10,35,0.00
2013-4-16,61,51,41,39,34,29,85,56,30,30.16,29.98,17,5,21,0.00
2013-4-17,63,57,51,36,32,25,54,40,24,30.28,30.16,20,6,24,0.00
2013-4-18,73,61,54,45,34,29,66,36,23,30.28,30.20,11,3,14,0.00
2013-4-19,77,63,52,55,47,34,91,59,28,30.24,30.09,16,3,21,0.00
2013-4-20,75,63,52,49,44,38,77,51,27,30.12,29.99,10,3,13,0.00
2013-4-21,82,68,50,52,42,34,87,45,19,30.06,29.94,11,2,13,0.00
2013-4-22,84,72,57,51,42,36,66,35,20,29.97,29.84,12,3,14,0.00
2013-4-23,77,66,50,47,38,24,85,39,16,29.95,29.86,15,2,15,0.00
2013-4-24,69,56,47,52,48,45,99,78,54,29.95,29.84,11,2,15,0.00
2013-4-25,67,56,49,53,48,46,92,78,59,30.15,29.95,14,3,17,0.00
2013-4-26,68,54,47,53,48,44,96,80,57,30.24,30.14,8,2,12,0.00
2013-4-27,70,56,46,55,49,44,94,80,57,30.24,30.09,6,1,9,0.00
2013-4-28,82,63,47,58,51,46,97,71,33,30.10,29.90,8,2,11,0.01
2013-4-29,86,72,57,52,48,43,77,46,26,29.90,29.77,14,3,15,0.00
2013-4-30,77,65,51,53,44,24,87,52,18,29.87,29.79,11,3,16,0.00
2013-5-1,81,70,63,48,28,21,47,22,13,30.07,29.86,13,4,17,0.00
2013-5-2,87,80,70,42,32,20,24,18,14,30.16,30.08,12,3,15,0.00
2013-5-3,85,74,64,49,33,20,44,23,14,30.09,29.80,13,2,13,0.00
2013-5-4,84,70,53,52,43,32,78,40,19,29.80,29.55,15,3,23,0.00
2013-5-5,65,58,52,50,48,45,79,69,56,29.82,29.60,27,6,36,0.00
2013-5-6,66,59,54,53,49,48,81,71,56,29.98,29.82,16,3,20,0.02
2013-5-7,67,59,53,53,49,46,87,70,53,30.06,29.96,16,3,18,0.00
2013-5-8,62,54,49,53,49,46,96,84,64,30.17,30.05,20,4,20,0.00
2013-5-9,64,54,48,51,48,46,94,82,60,30.21,30.11,12,3,17,0.00
2013-5-10,71,57,48,56,50,46,95,81,54,30.22,30.13,11,2,13,0.00
2013-5-11,78,62,51,60,53,48,97,75,43,30.17,30.06,9,2,10,0.00
2013-5-12,78,65,53,60,53,42,92,68,30,30.16,30.05,11,3,17,0.00
2013-5-13,77,62,51,58,51,45,94,71,47,30.11,29.97,19,3,22,0.00
2013-5-14,72,60,51,55,47,41,86,64,36,30.04,29.95,14,2,17,0.00
2013-5-15,63,55,49,49,45,41,84,68,49,30.11,30.03,18,4,25,0.00
2013-5-16,65,57,52,55,50,48,92,80,58,30.07,30.00,17,5,24,0.00
2013-5-17,64,54,49,48,46,44,89,74,51,30.12,30.01,16,4,20,0.00
2013-5-18,69,58,48,50,46,40,87,67,40,30.16,30.10,15,4,23,0.00
2013-5-19,78,65,51,47,43,36,83,48,26,30.14,29.99,12,4,19,0.00
2013-5-20,85,70,53,49,40,33,77,36,17,30.02,29.93,15,3,21,0.00
2013-5-21,63,56,48,50,44,37,88,67,40,30.03,29.93,25,7,35,0.00
2013-5-22,60,51,43,42,37,21,82,62,23,30.05,29.95,19,6,26,0.00
2013-5-23,62,52,45,45,41,36,83,66,48,30.03,29.94,18,6,27,0.00
2013-5-24,65,53,44,48,42,36,87,68,40,30.03,29.99,19,4,24,0.00
2013-5-25,58,52,47,48,45,42,89,78,60,30.09,30.00,20,6,30,0.00
2013-5-26,65,56,51,53,50,48,94,82,62,30.16,30.08,18,6,24,0.00
2013-5-27,61,56,51,55,52,48,93,86,72,30.16,30.02,12,4,18,0.01
2013-5-28,64,58,53,57,52,46,95,82,61,30.02,29.95,17,4,25,0.01
2013-5-29,65,58,53,55,49,44,88,73,59,30.00,29.94,19,5,25,0.00
2013-5-30,72,59,48,48,41,32,85,55,25,30.02,29.95,18,3,23,0.00
2013-5-31,84,66,51,53,46,39,85,52,22,30.04,29.93,13,2,16,0.00
2013-6-1,91,70,56,56,50,41,84,53,18,29.95,29.79,11,2,15,0.00
2013-6-2,79,63,51,57,52,47,90,70,44,29.79,29.69,7,1,11,0.00
2013-6-3,75,60,50,57,52,48,93,76,52,29.86,29.73,10,2,14,0.00
2013-6-4,73,60,53,56,53,50,93,78,56,29.97,29.85,12,2,15,0.00
2013-6-5,69,59,51,56,52,49,92,79,61,30.01,29.92,10,2,13,0.00
2013-6-6,72,60,53,57,53,50,92,80,60,29.97,29.87,10,2,11,0.00
2013-6-7,90,68,54,63,57,52,96,73,40,29.91,29.74,7,1,11,0.00
2013-6-8,86,71,58,64,58,51,86,65,44,29.80,29.71,6,1,7,0.00
2013-6-9,74,61,54,59,54,51,94,79,53,29.88,29.79,22,4,28,0.00
2013-6-10,66,59,54,54,51,49,90,77,63,29.96,29.83,20,6,27,0.00
2013-6-11,68,60,54,56,53,50,92,79,62,30.00,29.92,12,2,13,0.00
2013-6-12,74,62,51,53,45,34,90,59,24,30.03,29.92,25,5,33,0.00
2013-6-13,75,62,49,52,45,36,79,56,25,30.11,30.01,11,3,15,0.00
2013-6-14,82,68,54,52,44,38,75,47,23,30.01,29.84,15,3,21,0.00
2013-6-15,72,59,48,55,49,44,94,72,41,30.03,29.84,10,2,14,0.00
2013-6-16,73,61,51,53,50,47,94,70,46,30.11,30.02,16,4,21,0.01
2013-6-17,67,59,54,56,52,48,91,78,66,30.13,30.06,20,5,23,0.00
2013-6-18,61,56,52,52,50,48,91,79,66,30.07,30.02,20,8,30,0.00
2013-6-19,68,58,51,50,47,44,84,66,46,30.08,30.03,15,6,22,0.00
2013-6-20,75,61,51,53,46,40,82,60,30,30.04,29.98,22,4,29,0.00
2013-6-21,80,62,51,56,47,35,90,60,21,30.00,29.94,15,3,21,0.00
2013-6-22,84,65,54,58,50,42,90,63,25,29.95,29.87,21,5,29,0.00
2013-6-23,67,61,56,60,56,52,95,85,77,29.91,29.83,17,4,19,0.00
2013-6-24,65,60,56,60,58,54,97,92,83,29.92,29.80,13,1,14,0.03
2013-6-25,71,65,60,64,60,56,94,86,79,30.00,29.89,11,3,18,0.02
2013-6-26,80,68,61,66,61,58,95,80,55,30.06,29.98,14,3,19,0.00
2013-6-27,85,72,60,64,59,54,94,67,37,30.09,30.02,10,3,15,0.00
2013-6-28,95,80,65,65,56,45,76,46,23,30.04,29.91,15,3,18,0.00
2013-6-29,96,83,72,64,52,46,56,36,22,29.93,29.81,17,4,21,0.00
2013-6-30,90,75,64,62,56,51,81,54,29,29.85,29.78,11,2,17,0.00
2013-7-1,96,75,60,65,59,48,92,63,22,29.85,29.80,7,1,10,0.00
2013-7-2,86,72,61,65,60,55,91,70,36,29.92,29.81,6,1,11,0.00
2013-7-3,88,71,59,65,61,56,94,73,44,29.92,29.77,7,1,9,0.00
2013-7-4,93,75,64,65,57,42,83,58,29,29.79,29.69,13,3,23,0.00
2013-7-5,72,62,55,54,51,44,85,68,39,29.82,29.74,20,5,28,0.00
2013-7-6,74,61,52,57,52,49,92,76,55,29.82,29.74,10,2,11,0.00
2013-7-7,74,62,54,58,54,51,91,77,56,29.87,29.79,11,2,13,0.00
2013-7-8,75,62,54,58,55,51,93,80,53,29.99,29.87,8,2,13,0.00
2013-7-9,86,68,56,62,56,45,97,72,25,30.04,29.94,7,1,11,0.00
2013-7-10,76,63,54,59,55,52,93,78,52,29.98,29.90,9,2,11,0.00
2013-7-11,75,61,55,58,54,50,91,78,52,29.96,29.88,9,2,12,0.00
2013-7-12,80,63,53,57,54,50,93,75,39,29.95,29.88,7,1,11,0.00
2013-7-13,84,64,54,58,54,46,97,72,28,29.97,29.90,9,2,12,0.01
2013-7-14,74,61,53,58,54,50,96,79,54,30.02,29.91,10,2,11,0.00
2013-7-15,74,60,53,57,53,50,93,80,50,29.94,29.84,10,2,14,0.00
2013-7-16,69,58,52,56,52,49,93,81,62,30.06,29.88,15,4,19,0.00
2013-7-17,74,61,53,58,54,50,93,80,58,30.12,30.04,8,2,11,0.00
2013-7-18,82,63,53,59,54,51,96,76,39,30.09,29.96,9,2,11,0.00
2013-7-19,79,63,53,59,55,50,96,78,47,29.97,29.84,7,2,12,0.00
2013-7-20,76,62,53,59,55,50,94,79,53,29.88,29.75,6,2,10,0.00
2013-7-21,73,62,54,59,55,51,95,79,58,29.89,29.77,8,2,11,0.00
2013-7-22,73,63,54,61,57,52,95,83,65,29.97,29.88,11,1,11,0.00
2013-7-23,73,64,58,62,58,55,94,81,60,30.01,29.95,7,1,14,0.00
2013-7-24,82,67,56,62,57,47,97,73,32,30.00,29.92,9,1,9,0.00
2013-7-25,78,64,54,60,56,52,97,78,50,30.04,29.93,7,1,10,0.00
2013-7-26,74,63,56,60,57,54,95,82,62,30.11,30.01,7,1,12,0.00
2013-7-27,72,63,56,60,57,54,95,83,63,30.05,29.87,9,1,12,0.00
2013-7-28,74,62,54,58,56,50,94,80,57,29.89,29.81,7,2,11,0.00
2013-7-29,75,61,52,58,53,49,93,77,50,30.02,29.85,10,2,13,0.00
2013-7-30,74,62,54,58,54,50,92,77,58,30.11,30.02,9,2,12,0.00
2013-7-31,78,62,54,58,52,47,91,72,34,30.10,30.03,11,2,14,0.00
2013-8-1,73,61,53,53,49,45,87,67,39,30.10,29.99,17,3,18,0.00
2013-8-2,78,62,51,57,52,48,95,73,39,30.00,29.91,8,2,14,0.00
2013-8-3,72,60,52,57,54,50,94,80,59,30.00,29.92,8,2,12,0.00
2013-8-4,83,60,54,58,54,51,92,82,42,30.02,29.95,7,2,13,0.03